TimeMDT,TemperatureF,Dew PointF,Humidity,Sea Level PressureIn,VisibilityMPH,Wind Direction,Wind SpeedMPH,Gust SpeedMPH,PrecipitationIn,Events,Conditions,WindDirDegrees,DateUTC
12:55 AM,45.7,30.7,56,29.76,10.0,SE,6.9,-,N/A,,Clear,140,2013-04-07 06:55:00
1:55 AM,43.0,31.1,63,29.76,10.0,SSE,5.8,-,N/A,,Overcast,150,2013-04-07 07:55:00
2:55 AM,43.3,32.4,65,29.74,10.0,Calm,Calm,-,N/A,,Overcast,0,2013-04-07 08:55:00
3:55 AM,41.5,32.7,71,29.73,10.0,SE,3.5,-,N/A,,Scattered Clouds,130,2013-04-07 09:55:00
4:55 AM,42.4,32.5,68,29.73,10.0,Calm,Calm,-,N/A,,Overcast,0,2013-04-07 10:55:00
5:55 AM,40.6,32.5,73,29.73,10.0,NE,8.1,-,N/A,,Overcast,40,2013-04-07 11:55:00
6:34 AM,41.0,33.8,76,29.73,10.0,North,9.2,-,N/A,,Mostly Cloudy,360,2013-04-07 12:34:00
6:43 AM,41.0,33.8,76,29.73,10.0,North,10.4,-,N/A,,Overcast,360,2013-04-07 12:43:00
6:55 AM,41.0,33.6,75,29.74,10.0,Variable,3.5,-,0.00,,Overcast,0,2013-04-07 12:55:00
7:55 AM,41.5,33.3,72,29.74,10.0,North,15.0,-,N/A,,Overcast,360,2013-04-07 13:55:00
8:55 AM,46.6,35.6,66,29.72,10.0,North,4.6,-,N/A,,Overcast,360,2013-04-07 14:55:00
9:55 AM,48.2,35.8,62,29.70,10.0,ENE,4.6,-,N/A,,Clear,70,2013-04-07 15:55:00
10:55 AM,50.0,35.8,58,29.70,10.0,East,6.9,-,N/A,,Clear,100,2013-04-07 16:55:00
11:55 AM,55.8,36.9,49,29.67,10.0,NE,6.9,-,N/A,,Clear,40,2013-04-07 17:55:00
12:55 PM,57.6,36.5,45,29.65,10.0,ENE,3.5,-,N/A,,Partly Cloudy,60,2013-04-07 18:55:00
1:43 PM,57.2,37.4,48,29.65,10.0,Calm,Calm,-,N/A,,Light Drizzle,0,2013-04-07 19:43:00
1:54 PM,57.2,37.4,48,29.65,10.0,Calm,Calm,-,N/A,,Overcast,0,2013-04-07 19:54:00
1:55 PM,56.8,36.5,47,29.65,10.0,Calm,Calm,-,0.00,,Overcast,0,2013-04-07 19:55:00
2:39 PM,55.4,41.0,58,29.65,10.0,NNW,11.5,-,N/A,Rain,Light Rain,340,2013-04-07 20:39:00
2:53 PM,57.2,41.0,55,29.65,10.0,North,8.1,-,N/A,,Mostly Cloudy,360,2013-04-07 20:53:00
2:55 PM,56.8,39.9,53,29.65,10.0,North,8.1,-,0.00,,Mostly Cloudy,350,2013-04-07 20:55:00
3:55 PM,57.6,37.8,48,29.61,10.0,Calm,Calm,-,N/A,,Mostly Cloudy,0,2013-04-07 21:55:00
4:22 PM,57.2,37.4,48,29.62,10.0,South,3.5,-,N/A,Rain,Light Rain,170,2013-04-07 22:22:00
4:46 PM,57.2,39.2,51,29.62,10.0,Calm,Calm,-,N/A,,Overcast,0,2013-04-07 22:46:00
4:55 PM,57.7,41.2,54,29.62,10.0,North,11.5,-,0.00,,Overcast,360,2013-04-07 22:55:00
5:55 PM,56.3,38.1,51,29.60,10.0,ENE,9.2,-,N/A,,Clear,70,2013-04-07 23:55:00
6:44 PM,55.4,37.4,51,29.60,10.0,NNE,5.8,-,N/A,Rain,Light Rain,30,2013-04-08 00:44:00
6:55 PM,55.0,39.2,55,29.60,10.0,Calm,Calm,-,0.00,,Light Drizzle,0,2013-04-08 00:55:00
6:57 PM,55.4,39.2,54,29.60,10.0,Calm,Calm,-,N/A,,Overcast,0,2013-04-08 00:57:00
7:09 PM,55.4,41.0,58,29.61,10.0,SW,5.8,-,N/A,Rain,Light Rain,230,2013-04-08 01:09:00
7:15 PM,53.6,44.6,72,29.63,8.0,SSW,10.4,-,N/A,Rain,Light Rain,210,2013-04-08 01:15:00
7:46 PM,50.0,42.8,76,29.62,10.0,ESE,5.8,-,N/A,,Mostly Cloudy,120,2013-04-08 01:46:00
7:55 PM,49.8,43.0,77,29.60,10.0,SE,6.9,-,0.03,,Mostly Cloudy,140,2013-04-08 01:55:00
8:55 PM,48.6,44.4,86,29.62,10.0,Calm,Calm,-,N/A,,Overcast,0,2013-04-08 02:55:00
9:55 PM,47.8,41.5,79,29.63,10.0,East,8.1,-,N/A,,Scattered Clouds,80,2013-04-08 03:55:00
10:44 PM,46.4,41.0,81,29.62,10.0,East,8.1,-,N/A,Rain,Light Rain,90,2013-04-08 04:44:00
10:55 PM,46.2,39.7,78,29.63,10.0,Calm,Calm,-,0.01,,Mostly Cloudy,0,2013-04-08 04:55:00
11:55 PM,44.6,40.1,84,29.60,10.0,ENE,8.1,-,N/A,,Partly Cloudy,60,2013-04-08 05:55:00